Flag for U.S.A. Weather past 2 weeks in Wheaton, Illinois, U.S.A.

Now
59 °F

Passing clouds.


Feels Like: 58 °F
Forecast: 59 / 75 °F
Wind: 8 mph from South

Location: Dupage Airport

Current Time: Sep 20, 2014 at 8:07:26 AM

Latest Report: Sep 20, 2014 at 6:52 AM


Visibility: 8 mi

Pressure: 29.93 "Hg

Humidity: 84%

Dew point: 54 °F

Location of WheatonLocation

Historic Weather in Wheaton — Graph

°F

Wheaton temperature yesterday

Maximum temperature yesterday: 75 °F (at 2:52 PM)
Minimum temperature yesterday: 52 °F (at 6:52 AM)
Average temperature yesterday: 63 °F

Past Weeks' High & Low Weather Summary

 TemperatureHumidityPressure
High88 °F (Sep 5, 1:52 PM)97% (Sep 14, 6:52 AM)30.39 "Hg (Sep 14, 6:52 AM)
Low40 °F (Sep 13, 3:52 AM)33% (Sep 7, 3:52 PM)29.50 "Hg (Sep 10, 9:52 AM)
Average60 °F74%30.09 "Hg
* Reported Sep 5 6:52 AM — Sep 20 6:52 AM, Wheaton, Weather by CustomWeather, © 2014

Note: Actual official high and low records may vary slightly from our data, if they occured in-between our weather recording intervals... More about our weather records

Advertising

Wheaton weather history for previous 24 hours

 ConditionsComfort  
Time TempWeatherWind HumidityBarometerVisibility
6:52 AM
Sep 20
59 °FPassing clouds.8 mph84%29.93 "Hg8 mi
5:52 AM60 °FMostly cloudy.7 mph78%29.93 "Hg10 mi
4:52 AM60 °FClear.12 mph78%29.91 "Hg10 mi
3:52 AM59 °FClear.9 mph78%29.91 "Hg10 mi
2:52 AM59 °FClear.9 mph75%29.92 "Hg10 mi
1:52 AM61 °FClear.12 mph70%29.93 "Hg10 mi
12:52 AM61 °FClear.12 mph67%29.91 "Hg10 mi
11:52 PM
Sep 19
63 °FClear.14 mph60%29.92 "Hg10 mi
10:52 PM63 °FClear.14 mph60%29.94 "Hg10 mi
9:52 PM63 °FClear.14 mph60%29.95 "Hg10 mi
8:52 PM62 °FClear.9 mph60%29.97 "Hg10 mi
7:52 PM62 °FSunny.7 mph58%29.98 "Hg10 mi
6:52 PM66 °FSunny.8 mph50%29.98 "Hg10 mi
5:52 PM70 °FSunny.14 mph42%29.99 "Hg10 mi
4:52 PM74 °FSunny.15 mph37%29.99 "Hg10 mi
3:52 PM75 °FSunny.16 mph36%30.01 "Hg10 mi
2:52 PM75 °FSunny.15 mph37%30.03 "Hg10 mi
1:52 PM74 °FSunny.16 mph40%30.07 "Hg10 mi
12:52 PM73 °FSunny.20 mph41%30.09 "Hg10 mi
11:52 AM71 °FSunny.17 mph47%30.12 "Hg10 mi
10:52 AM69 °FSunny.14 mph55%30.14 "Hg10 mi
9:52 AM64 °FSunny.9 mph68%30.15 "Hg10 mi
8:52 AM60 °FSunny.9 mph75%30.16 "Hg9 mi
Weather by CustomWeather, © 2014

See weather overviewHow to use our weather pages